AUA25L EDDH-LOWW

Flight info

Callsign AUA25L
Flight time N/A
Altitude 39000
Route RAMAR6C RAMAR Z998 RATMO DCT HDO DCT EVIKU DCT BITSI DCT MIKOV MIKOV8W
Aircraft A20N/M-SDE2E3FGHIJ1RWXY/LB1

Departure

Time 2026-05-07 12:48
Airport Hamburg Helmut Schmidt Airport (EDDH)

Arrival

Time N/A
Airport Vienna International Airport (LOWW)
Time Latitude Longitude Altitude Speed Heading
2026-05-07 12:15 53.63074 10.00378 62 ft 0 kts 93°
2026-05-07 12:33 53.63074 10.00370 62 ft 2 kts 93°
2026-05-07 12:33 53.63074 10.00345 62 ft 2 kts 93°
2026-05-07 12:33 53.63076 10.00320 62 ft 2 kts 93°
2026-05-07 12:34 53.63076 10.00295 62 ft 2 kts 93°
2026-05-07 12:34 53.63077 10.00269 62 ft 2 kts 92°
2026-05-07 12:34 53.63079 10.00244 62 ft 2 kts 112°
2026-05-07 12:34 53.63086 10.00222 62 ft 2 kts 128°
2026-05-07 12:35 53.63097 10.00205 62 ft 2 kts 146°
2026-05-07 12:35 53.63110 10.00194 62 ft 2 kts 164°
2026-05-07 12:35 53.63119 10.00191 62 ft 1 kts 175°
2026-05-07 12:35 53.63125 10.00190 62 ft 0 kts 176°
2026-05-07 12:37 53.63121 10.00191 62 ft 1 kts 177°
2026-05-07 12:37 53.63105 10.00192 62 ft 4 kts 179°
2026-05-07 12:37 53.63068 10.00176 62 ft 7 kts 209°
2026-05-07 12:37 53.63018 10.00126 62 ft 8 kts 211°
2026-05-07 12:38 53.62968 10.00074 62 ft 7 kts 213°
2026-05-07 12:38 53.62921 10.00041 62 ft 7 kts 183°
2026-05-07 12:38 53.62870 10.00023 62 ft 7 kts 204°
2026-05-07 12:38 53.62825 9.99980 62 ft 7 kts 213°
2026-05-07 12:39 53.62780 9.99935 62 ft 2 kts 210°
2026-05-07 12:39 53.62779 9.99934 62 ft 0 kts 210°
2026-05-07 12:39 53.62778 9.99933 62 ft 0 kts 210°
2026-05-07 12:39 53.62770 9.99925 62 ft 3 kts 209°
2026-05-07 12:40 53.62740 9.99898 62 ft 6 kts 207°
2026-05-07 12:40 53.62687 9.99850 62 ft 10 kts 210°
2026-05-07 12:40 53.62642 9.99754 62 ft 10 kts 249°
2026-05-07 12:40 53.62623 9.99630 62 ft 10 kts 259°
2026-05-07 12:41 53.62610 9.99505 62 ft 10 kts 260°
2026-05-07 12:41 53.62598 9.99379 62 ft 10 kts 259°
2026-05-07 12:41 53.62581 9.99256 62 ft 10 kts 257°
2026-05-07 12:41 53.62567 9.99133 62 ft 10 kts 260°
2026-05-07 12:42 53.62554 9.99010 62 ft 10 kts 258°
2026-05-07 12:42 53.62539 9.98889 62 ft 10 kts 257°
2026-05-07 12:42 53.62523 9.98766 62 ft 10 kts 259°
2026-05-07 12:42 53.62510 9.98635 62 ft 11 kts 260°
2026-05-07 12:43 53.62496 9.98508 62 ft 10 kts 259°
2026-05-07 12:43 53.62481 9.98376 61 ft 12 kts 259°
2026-05-07 12:43 53.62466 9.98248 62 ft 7 kts 259°
2026-05-07 12:43 53.62457 9.98169 62 ft 6 kts 259°
2026-05-07 12:44 53.62447 9.98081 62 ft 6 kts 259°
2026-05-07 12:44 53.62439 9.98008 62 ft 6 kts 259°
2026-05-07 12:44 53.62430 9.97934 62 ft 3 kts 261°
2026-05-07 12:44 53.62428 9.97908 62 ft 1 kts 264°
2026-05-07 12:45 53.62427 9.97883 62 ft 3 kts 271°
2026-05-07 12:45 53.62428 9.97872 62 ft 1 kts 278°
2026-05-07 12:45 53.62435 9.97844 62 ft 3 kts 304°
2026-05-07 12:45 53.62455 9.97807 62 ft 5 kts 316°
2026-05-07 12:46 53.62492 9.97782 62 ft 6 kts 354°
2026-05-07 12:46 53.62533 9.97811 62 ft 4 kts 41°
2026-05-07 12:46 53.62540 9.97822 62 ft 0 kts 46°
2026-05-07 12:47 53.62543 9.97827 62 ft 1 kts 46°
2026-05-07 12:48 53.62582 9.97903 62 ft 36 kts 50°
2026-05-07 12:48 53.62931 9.98609 62 ft 117 kts 51°
2026-05-07 12:48 53.63565 9.99865 362 ft 152 kts 50°
2026-05-07 12:48 53.64236 10.01283 1071 ft 160 kts 53°
2026-05-07 12:49 53.64910 10.02719 1954 ft 159 kts 51°
2026-05-07 12:49 53.65617 10.04131 2644 ft 167 kts 52°
2026-05-07 12:49 53.66380 10.05751 3156 ft 188 kts 53°
2026-05-07 12:49 53.67216 10.07539 3784 ft 205 kts 52°
2026-05-07 12:50 53.68106 10.09430 4657 ft 211 kts 52°
2026-05-07 12:50 53.69010 10.11345 5587 ft 214 kts 52°
2026-05-07 12:50 53.69924 10.13280 6513 ft 217 kts 52°
2026-05-07 12:50 53.70831 10.15310 7425 ft 220 kts 58°
2026-05-07 12:51 53.71495 10.17619 8241 ft 227 kts 70°
2026-05-07 12:51 53.71978 10.20252 8838 ft 245 kts 73°
2026-05-07 12:51 53.72456 10.23152 9422 ft 264 kts 74°
2026-05-07 12:51 53.72958 10.26227 10043 ft 280 kts 74°
2026-05-07 12:52 53.73483 10.29426 10769 ft 292 kts 73°
2026-05-07 12:52 53.74048 10.32855 11293 ft 310 kts 73°
2026-05-07 12:52 53.74638 10.36421 12014 ft 321 kts 73°
2026-05-07 12:52 53.75230 10.40000 12854 ft 326 kts 73°
2026-05-07 12:53 53.75839 10.43689 13632 ft 331 kts 73°
2026-05-07 12:53 53.76455 10.47421 14448 ft 336 kts 73°
2026-05-07 12:53 53.77084 10.51238 15234 ft 341 kts 73°
2026-05-07 12:53 53.77725 10.55136 16008 ft 345 kts 73°
2026-05-07 12:54 53.78363 10.59032 16766 ft 350 kts 73°
2026-05-07 12:54 53.79011 10.62996 17506 ft 354 kts 73°
2026-05-07 12:54 53.79549 10.67055 18190 ft 360 kts 86°
2026-05-07 12:54 53.79289 10.71216 18855 ft 364 kts 108°
2026-05-07 12:55 53.78165 10.75072 19574 ft 366 kts 123°
2026-05-07 12:55 53.76793 10.78663 20275 ft 370 kts 124°
2026-05-07 12:55 53.75393 10.82304 20954 ft 374 kts 123°
2026-05-07 12:55 53.73975 10.86051 21650 ft 378 kts 123°
2026-05-07 12:56 53.72569 10.89784 22324 ft 381 kts 126°
2026-05-07 12:56 53.70892 10.93237 22989 ft 383 kts 136°
2026-05-07 12:56 53.68862 10.96128 23642 ft 385 kts 147°
2026-05-07 12:56 53.66590 10.98551 24303 ft 387 kts 150°
2026-05-07 12:57 53.64314 11.00845 24929 ft 390 kts 150°
2026-05-07 12:57 53.61962 11.03202 25543 ft 394 kts 150°
2026-05-07 12:57 53.59605 11.05574 26139 ft 397 kts 150°
2026-05-07 12:57 53.57220 11.07987 26708 ft 401 kts 150°
2026-05-07 12:58 53.54785 11.10454 27246 ft 405 kts 150°
2026-05-07 12:58 53.52323 11.12949 27786 ft 409 kts 150°
2026-05-07 12:58 53.49902 11.15404 28297 ft 412 kts 150°
2026-05-07 12:58 53.47449 11.17887 28786 ft 415 kts 150°
2026-05-07 12:59 53.44971 11.20394 29260 ft 417 kts 150°
2026-05-07 12:59 53.42496 11.22894 29712 ft 420 kts 149°
2026-05-07 12:59 53.40001 11.25413 30140 ft 422 kts 149°
2026-05-07 12:59 53.37459 11.27975 30559 ft 425 kts 149°
2026-05-07 13:00 53.34958 11.30493 31018 ft 425 kts 149°
2026-05-07 13:00 53.32441 11.33022 31528 ft 423 kts 149°
2026-05-07 13:00 53.29930 11.35574 31997 ft 421 kts 148°
2026-05-07 13:00 53.27520 11.38287 32389 ft 421 kts 144°
2026-05-07 13:01 53.25201 11.41234 32760 ft 422 kts 141°
2026-05-07 13:01 53.22977 11.44423 33133 ft 422 kts 138°
2026-05-07 13:01 53.20833 11.47730 33442 ft 421 kts 137°
2026-05-07 13:01 53.18710 11.51007 33731 ft 421 kts 137°
2026-05-07 13:02 53.16569 11.54299 34007 ft 421 kts 137°
2026-05-07 13:02 53.14417 11.57600 34261 ft 421 kts 137°
2026-05-07 13:02 53.12261 11.60899 34527 ft 421 kts 137°
2026-05-07 13:02 53.10104 11.64196 34786 ft 422 kts 137°
2026-05-07 13:03 53.07961 11.67470 35033 ft 422 kts 138°
2026-05-07 13:03 53.05817 11.70740 35310 ft 421 kts 139°
2026-05-07 13:03 53.03653 11.74033 35569 ft 421 kts 139°
2026-05-07 13:03 53.01518 11.77307 35816 ft 420 kts 137°
2026-05-07 13:04 52.99477 11.80726 36067 ft 421 kts 134°
2026-05-07 13:04 52.97546 11.84360 36298 ft 421 kts 131°
2026-05-07 13:04 52.95746 11.88165 36515 ft 421 kts 128°
2026-05-07 13:04 52.93989 11.92026 36753 ft 421 kts 128°
2026-05-07 13:05 52.92250 11.95844 36968 ft 421 kts 128°
2026-05-07 13:05 52.90475 11.99727 37187 ft 421 kts 129°
2026-05-07 13:05 52.88711 12.03573 37382 ft 422 kts 129°
2026-05-07 13:05 52.86928 12.07454 37570 ft 423 kts 129°
2026-05-07 13:06 52.85172 12.11274 37740 ft 424 kts 129°
2026-05-07 13:06 52.83382 12.15163 37903 ft 425 kts 129°
2026-05-07 13:06 52.81588 12.19056 38055 ft 426 kts 129°
2026-05-07 13:06 52.79806 12.22918 38207 ft 428 kts 129°
2026-05-07 13:07 52.77995 12.26836 38353 ft 429 kts 129°
2026-05-07 13:07 52.76181 12.30754 38492 ft 431 kts 129°
2026-05-07 13:07 52.74355 12.34614 38638 ft 432 kts 131°
2026-05-07 13:07 52.72385 12.38351 38812 ft 432 kts 135°
2026-05-07 13:08 52.70302 12.41861 38976 ft 432 kts 138°
2026-05-07 13:08 52.68068 12.45205 39023 ft 432 kts 141°
2026-05-07 13:08 52.63321 12.51140 39037 ft 430 kts 147°
2026-05-07 13:09 52.58410 12.56714 39032 ft 430 kts 147°
2026-05-07 13:09 52.53504 12.62284 39038 ft 430 kts 147°
2026-05-07 13:10 52.48596 12.67846 39040 ft 430 kts 148°
2026-05-07 13:10 52.43697 12.73384 39029 ft 430 kts 148°
2026-05-07 13:11 52.38779 12.78927 39032 ft 429 kts 148°
2026-05-07 13:11 52.33904 12.84405 39030 ft 429 kts 148°
2026-05-07 13:12 52.28997 12.89907 39038 ft 428 kts 148°
2026-05-07 13:12 52.24103 12.95378 39035 ft 428 kts 148°
2026-05-07 13:13 52.19173 13.00873 39035 ft 429 kts 148°
2026-05-07 13:13 52.14288 13.06305 39030 ft 429 kts 148°
2026-05-07 13:14 52.09364 13.11766 39030 ft 429 kts 148°
2026-05-07 13:14 52.04437 13.17213 39029 ft 429 kts 148°
2026-05-07 13:15 51.99529 13.22627 39028 ft 428 kts 148°
2026-05-07 13:15 51.94610 13.28037 39020 ft 428 kts 148°
2026-05-07 13:16 51.89691 13.33432 39025 ft 427 kts 148°
2026-05-07 13:16 51.84797 13.38787 39020 ft 427 kts 148°
2026-05-07 13:17 51.79892 13.44139 39023 ft 427 kts 148°
2026-05-07 13:17 51.75001 13.49460 39016 ft 427 kts 148°
2026-05-07 13:18 51.70072 13.54810 39008 ft 427 kts 148°
2026-05-07 13:18 51.65173 13.60113 39008 ft 427 kts 148°
2026-05-07 13:19 51.60241 13.65436 39006 ft 427 kts 149°
2026-05-07 13:19 51.55341 13.70711 39006 ft 427 kts 149°
2026-05-07 13:20 51.50407 13.76011 39000 ft 426 kts 149°
2026-05-07 13:20 51.45488 13.81279 39000 ft 426 kts 149°
2026-05-07 13:21 51.40567 13.86534 39000 ft 426 kts 149°
2026-05-07 13:21 51.35657 13.91764 38992 ft 426 kts 149°
2026-05-07 13:22 51.30732 13.97001 38991 ft 426 kts 149°
2026-05-07 13:22 51.25804 14.02225 38994 ft 426 kts 149°
2026-05-07 13:23 51.20886 14.07424 38990 ft 426 kts 149°
2026-05-07 13:23 51.15963 14.12616 38988 ft 425 kts 149°
2026-05-07 13:24 51.11040 14.17793 38986 ft 425 kts 149°
2026-05-07 13:24 51.06145 14.22929 38976 ft 426 kts 149°
2026-05-07 13:25 51.01189 14.28112 38968 ft 426 kts 149°
2026-05-07 13:25 50.96142 14.32923 38964 ft 424 kts 155°
2026-05-07 13:26 50.90833 14.36758 38964 ft 421 kts 161°
2026-05-07 13:26 50.85290 14.39599 38964 ft 419 kts 168°
2026-05-07 13:27 50.79631 14.41713 38969 ft 418 kts 169°
2026-05-07 13:27 50.73996 14.43813 38969 ft 418 kts 169°
2026-05-07 13:28 50.68362 14.45905 38967 ft 418 kts 168°
2026-05-07 13:28 50.62705 14.48001 38966 ft 417 kts 169°
2026-05-07 13:29 50.57066 14.50079 38963 ft 418 kts 168°
2026-05-07 13:29 50.51471 14.52459 38961 ft 419 kts 162°
2026-05-07 13:30 50.46157 14.56254 38962 ft 423 kts 153°
2026-05-07 13:30 50.41291 14.61523 38969 ft 428 kts 142°
2026-05-07 13:31 50.36945 14.67881 38967 ft 429 kts 139°
2026-05-07 13:31 50.32681 14.74362 38966 ft 429 kts 139°